M I D A S
Marine Information and Data Acquisition System
Tripno 2132 of the Zeeleeuw from 2011-01-21 07:34:33 to 2011-01-21 16:03:05
Back to CruiseResearch ActivitiesStationsMapUnderway DataData graphs

EquipmentUnitsComment
TimeDGPSUTC
LatitudeDGPSDM.mWGS84
LongitudeDGPSDM.mWGS84
TemperatureSBE03/SBE38deg celciusITS90
ConductivitySBE21S/mITS90
SalinitySBE21 Practical Salinity Units
ChlorophylAChelsea fluorimeterg/lCalibrated in Aceton
Missing or incorrect values are displayed as -999
Sea surface data collected by the RV Zeeleeuw from 2011-01-21 07:39:10 to 2011-01-21 16:03:00
Time Latitude Longitude Temperature Conductivity Salinity ChlorophylA
2011-01-21 07:40:19 51°13.676 2°55.878 14.4479 -999 -999 -999
2011-01-21 07:41:01 51°13.689 2°55.81 14.461 -999 -999 -999
2011-01-21 07:42:19 51°13.695 2°55.736 14.4681 -999 -999 -999
2011-01-21 07:43:18 51°13.701 2°55.733 14.4676 -999 -999 -999
2011-01-21 07:44:18 51°13.721 2°55.736 14.4717 -999 -999 -999
2011-01-21 07:45:18 51°13.755 2°55.711 14.4662 -999 -999 -999
2011-01-21 07:46:18 51°13.831 2°55.63 14.2891 -999 -999 -999
2011-01-21 07:46:52 51°13.898 2°55.578 14.2744 -999 -999 -999
2011-01-21 07:48:19 51°14.097 2°55.433 14.2994 -999 -999 -999
2011-01-21 07:49:19 51°14.241 2°55.314 14.3498 -999 -999 -999
2011-01-21 07:50:18 51°14.384 2°55.175 14.317 -999 -999 -999
2011-01-21 07:51:18 51°14.537 2°55.005 14.261 -999 -999 -999
2011-01-21 07:52:15 51°14.624 2°54.717 14.0808 -999 -999 -999
2011-01-21 07:53:15 51°14.689 2°54.378 14.0263 -999 -999 -999
2011-01-21 07:54:15 51°14.762 2°54.037 13.978 -999 -999 -999
2011-01-21 07:55:15 51°14.836 2°53.703 13.9448 -999 -999 -999
2011-01-21 07:56:15 51°14.904 2°53.36 13.961 -999 -999 -999
2011-01-21 07:57:15 51°14.972 2°53.014 13.9021 -999 -999 -999
2011-01-21 07:58:15 51°15.052 2°52.677 13.9859 -999 -999 -999
2011-01-21 07:59:15 51°15.126 2°52.334 13.9665 -999 -999 -999
2011-01-21 08:00:15 51°15.207 2°51.995 13.9563 -999 -999 -999
2011-01-21 08:01:15 51°15.262 2°51.639 13.9667 -999 -999 -999
2011-01-21 08:02:15 51°15.28 2°51.264 13.985 -999 -999 -999
2011-01-21 08:03:15 51°15.259 2°50.877 13.9925 -999 -999 -999
2011-01-21 08:04:15 51°15.243 2°50.485 13.9611 -999 -999 -999
2011-01-21 08:05:15 51°15.204 2°50.095 13.9799 -999 -999 -999
2011-01-21 08:06:15 51°15.15 2°49.705 14.0011 -999 -999 -999
2011-01-21 08:07:15 51°15.097 2°49.315 13.9984 -999 -999 -999
2011-01-21 08:08:15 51°15.045 2°48.926 14.0151 -999 -999 -999
2011-01-21 08:09:15 51°15.015 2°48.534 14.0227 -999 -999 -999
2011-01-21 08:10:15 51°15.007 2°48.143 14.0429 -999 -999 -999
2011-01-21 08:11:15 51°14.999 2°47.763 14.0216 -999 -999 -999
2011-01-21 08:12:15 51°14.991 2°47.392 14.0263 -999 -999 -999
2011-01-21 08:13:15 51°14.971 2°47.03 14.0689 -999 -999 -999
2011-01-21 08:14:15 51°14.94 2°46.672 14.0388 -999 -999 -999
2011-01-21 08:15:15 51°14.899 2°46.314 14.0331 -999 -999 -999
2011-01-21 08:16:15 51°14.856 2°45.95 14.0688 -999 -999 -999
2011-01-21 08:17:15 51°14.781 2°45.591 14.077 -999 -999 -999
2011-01-21 08:18:15 51°14.688 2°45.24 14.0963 -999 -999 -999
2011-01-21 08:19:15 51°14.588 2°44.894 14.1033 -999 -999 -999
2011-01-21 08:20:15 51°14.478 2°44.554 14.1201 -999 -999 -999
2011-01-21 08:21:14 51°14.334 2°44.252 14.1245 -999 -999 -999
2011-01-21 08:22:15 51°14.178 2°43.95 14.1547 -999 -999 -999
2011-01-21 08:23:15 51°14.023 2°43.655 14.1539 -999 -999 -999
2011-01-21 08:24:15 51°13.867 2°43.362 14.1564 -999 -999 -999
2011-01-21 08:25:15 51°13.712 2°43.067 14.1845 -999 -999 -999
2011-01-21 08:26:15 51°13.561 2°42.766 14.2126 -999 -999 -999
2011-01-21 08:27:15 51°13.422 2°42.449 14.2143 -999 -999 -999
2011-01-21 08:28:15 51°13.282 2°42.13 14.2288 -999 -999 -999
2011-01-21 08:29:15 51°13.141 2°41.811 14.189 -999 -999 -999
2011-01-21 08:30:15 51°12.998 2°41.491 14.248 -999 -999 -999
2011-01-21 08:31:15 51°12.856 2°41.17 14.2665 -999 -999 -999
2011-01-21 08:32:15 51°12.714 2°40.852 14.2698 -999 -999 -999
2011-01-21 08:33:15 51°12.572 2°40.536 14.2495 -999 -999 -999
2011-01-21 08:34:15 51°12.429 2°40.224 14.2738 -999 -999 -999
2011-01-21 08:35:15 51°12.29 2°39.91 14.3135 -999 -999 -999
2011-01-21 08:36:15 51°12.149 2°39.597 14.3066 -999 -999 -999
2011-01-21 08:37:15 51°12.011 2°39.283 14.3332 -999 -999 -999
2011-01-21 08:38:15 51°11.872 2°38.969 14.3234 -999 -999 -999
2011-01-21 08:39:15 51°11.729 2°38.663 14.356 -999 -999 -999
2011-01-21 08:40:15 51°11.59 2°38.352 14.3446 -999 -999 -999
2011-01-21 08:41:15 51°11.451 2°38.041 14.3555 -999 -999 -999
2011-01-21 08:42:15 51°11.311 2°37.726 14.3421 -999 -999 -999
2011-01-21 08:43:15 51°11.171 2°37.413 14.3756 -999 -999 -999
2011-01-21 08:44:15 51°11.032 2°37.101 14.4156 -999 -999 -999
2011-01-21 08:45:15 51°10.882 2°36.803 14.4604 -999 -999 -999
2011-01-21 08:46:15 51°10.686 2°36.582 14.4447 -999 -999 -999
2011-01-21 08:47:15 51°10.464 2°36.479 14.467 -999 -999 -999
2011-01-21 08:48:15 51°10.25 2°36.6 14.4583 -999 -999 -999
2011-01-21 08:49:15 51°10.038 2°36.735 14.4697 -999 -999 -999
2011-01-21 08:50:15 51°9.823 2°36.843 14.4742 -999 -999 -999
2011-01-21 08:51:15 51°9.607 2°36.939 14.4595 -999 -999 -999
2011-01-21 08:52:15 51°9.4 2°36.773 14.5314 -999 -999 -999
2011-01-21 08:53:15 51°9.28 2°36.438 14.5418 -999 -999 -999
2011-01-21 08:54:15 51°9.171 2°36.085 14.5427 -999 -999 -999
2011-01-21 08:55:15 51°9.046 2°35.741 14.5672 -999 -999 -999
2011-01-21 08:56:15 51°8.922 2°35.395 14.5648 -999 -999 -999
2011-01-21 08:57:14 51°8.802 2°35.051 14.5859 -999 -999 -999
2011-01-21 08:58:15 51°8.677 2°34.694 14.5814 -999 -999 -999
2011-01-21 08:59:14 51°8.555 2°34.352 14.5977 -999 -999 -999
2011-01-21 09:00:15 51°8.431 2°33.996 14.6326 -999 -999 -999
2011-01-21 09:01:15 51°8.31 2°33.645 14.6274 -999 -999 -999
2011-01-21 09:02:15 51°8.19 2°33.296 14.6159 -999 -999 -999
2011-01-21 09:03:15 51°8.07 2°32.949 14.6354 -999 -999 -999
2011-01-21 09:04:15 51°7.953 2°32.61 14.6229 -999 -999 -999
2011-01-21 09:05:15 51°7.946 2°32.258 14.6602 -999 -999 -999
2011-01-21 09:06:15 51°8.079 2°31.964 14.6891 -999 -999 -999
2011-01-21 09:07:15 51°8.23 2°31.701 14.6546 -999 -999 -999
2011-01-21 09:08:15 51°8.38 2°31.794 14.7306 -999 -999 -999
2011-01-21 09:09:15 51°8.502 2°32.015 14.7379 -999 -999 -999
2011-01-21 09:10:15 51°8.633 2°32.226 14.7527 -999 -999 -999
2011-01-21 09:11:15 51°8.76 2°32.448 14.7484 -999 -999 -999
2011-01-21 09:12:15 51°8.887 2°32.67 14.7718 -999 -999 -999
2011-01-21 09:13:15 51°9.014 2°32.898 14.782 -999 -999 -999
2011-01-21 09:14:15 51°9.145 2°33.124 14.8035 -999 -999 -999
2011-01-21 09:15:15 51°9.274 2°33.36 14.8094 -999 -999 -999
2011-01-21 09:16:15 51°9.414 2°33.587 14.8008 -999 -999 -999
2011-01-21 09:17:15 51°9.551 2°33.817 14.7982 -999 -999 -999
2011-01-21 09:18:15 51°9.688 2°34.048 14.8109 -999 -999 -999
2011-01-21 09:19:15 51°9.827 2°34.276 14.8263 -999 -999 -999
2011-01-21 09:20:15 51°9.967 2°34.505 14.8423 -999 -999 -999
2011-01-21 09:21:15 51°10.112 2°34.725 15.0417 -999 -999 -999
2011-01-21 09:22:15 51°10.263 2°34.936 14.9007 -999 -999 -999
2011-01-21 09:23:15 51°10.419 2°35.131 14.9248 -999 -999 -999
2011-01-21 09:24:15 51°10.578 2°35.317 14.9487 -999 -999 -999
2011-01-21 09:25:15 51°10.739 2°35.5 14.9726 -999 -999 -999
2011-01-21 09:26:15 51°10.9 2°35.684 14.9968 -999 -999 -999
2011-01-21 09:27:15 51°11.062 2°35.866 14.5351 -999 -999 -999
2011-01-21 09:28:15 51°11.224 2°36.049 14.7281 -999 -999 -999
2011-01-21 09:29:15 51°11.386 2°36.229 14.818 -999 -999 -999
2011-01-21 09:30:15 51°11.547 2°36.411 14.8375 -999 -999 -999
2011-01-21 09:31:15 51°11.709 2°36.591 14.8308 -999 -999 -999
2011-01-21 09:32:15 51°11.87 2°36.769 14.8666 -999 -999 -999
2011-01-21 09:33:15 51°12.03 2°36.946 14.887 -999 -999 -999
2011-01-21 09:34:15 51°12.196 2°37.116 14.8867 -999 -999 -999
2011-01-21 09:35:15 51°12.363 2°37.285 14.9029 -999 -999 -999
2011-01-21 09:36:15 51°12.526 2°37.452 14.9289 -999 -999 -999
2011-01-21 09:37:15 51°12.69 2°37.62 14.9478 -999 -999 -999
2011-01-21 09:38:15 51°12.857 2°37.792 14.9558 -999 -999 -999
2011-01-21 09:39:15 51°13.036 2°37.927 14.9543 -999 -999 -999
2011-01-21 09:40:15 51°13.228 2°37.877 14.9986 -999 -999 -999
2011-01-21 09:41:15 51°13.41 2°37.715 14.9673 -999 -999 -999
2011-01-21 09:42:15 51°13.511 2°37.413 15.0078 -999 -999 -999
2011-01-21 09:43:15 51°13.609 2°37.089 14.9905 -999 -999 -999
2011-01-21 09:44:15 51°13.615 2°36.713 15.0223 -999 -999 -999
2011-01-21 09:45:15 51°13.6 2°36.328 15.0302 -999 -999 -999
2011-01-21 09:46:15 51°13.588 2°35.943 15.0468 -999 -999 -999
2011-01-21 09:47:15 51°13.568 2°35.562 15.042 -999 -999 -999
2011-01-21 09:48:15 51°13.421 2°35.274 15.0542 -999 -999 -999
2011-01-21 09:49:15 51°13.238 2°35.017 15.0651 -999 -999 -999
2011-01-21 09:50:15 51°13.056 2°34.755 6.8699 -999 -999 -999
2011-01-21 09:51:15 51°12.871 2°34.497 6.3711 -999 -999 -999
2011-01-21 09:52:15 51°12.694 2°34.231 6.347 -999 -999 -999
2011-01-21 09:53:15 51°12.565 2°33.901 6.2722 -999 -999 -999
2011-01-21 09:54:15 51°12.442 2°33.564 6.2925 -999 -999 -999
2011-01-21 09:55:14 51°12.321 2°33.236 6.2714 -999 -999 -999
2011-01-21 09:56:15 51°12.195 2°32.898 6.2583 -999 -999 -999
2011-01-21 09:57:15 51°12.072 2°32.568 6.263 -999 -999 -999
2011-01-21 09:58:15 51°11.946 2°32.242 6.2714 -999 -999 -999
2011-01-21 09:59:15 51°11.883 2°31.885 6.2801 -999 -999 -999
2011-01-21 10:00:15 51°11.916 2°31.527 6.2794 -999 -999 -999
2011-01-21 10:01:15 51°12.027 2°31.219 6.2327 -999 -999 -999
2011-01-21 10:02:15 51°12.182 2°30.978 6.1945 -999 -999 -999
2011-01-21 10:03:15 51°12.357 2°30.797 6.157 -999 -999 -999
2011-01-21 10:04:15 51°12.555 2°30.742 6.1313 -999 -999 -999
2011-01-21 10:05:15 51°12.747 2°30.777 6.1451 -999 -999 -999
2011-01-21 10:06:15 51°12.921 2°30.91 6.1329 -999 -999 -999
2011-01-21 10:07:15 51°13.094 2°31.046 6.1137 -999 -999 -999
2011-01-21 10:08:15 51°13.267 2°31.183 6.1187 -999 -999 -999
2011-01-21 10:09:15 51°13.439 2°31.323 6.1003 -999 -999 -999
2011-01-21 10:10:15 51°13.61 2°31.465 6.1118 -999 -999 -999
2011-01-21 10:11:15 51°13.781 2°31.607 6.0795 -999 -999 -999
2011-01-21 10:12:15 51°13.952 2°31.752 6.0835 -999 -999 -999
2011-01-21 10:13:14 51°14.121 2°31.895 6.0785 -999 -999 -999
2011-01-21 10:14:15 51°14.295 2°32.043 6.0702 -999 -999 -999
2011-01-21 10:15:15 51°14.468 2°32.189 6.0496 -999 -999 -999
2011-01-21 10:16:15 51°14.64 2°32.337 6.0545 -999 -999 -999
2011-01-21 10:17:15 51°14.813 2°32.484 6.0389 -999 -999 -999
2011-01-21 10:18:15 51°14.986 2°32.632 6.0332 -999 -999 -999
2011-01-21 10:19:15 51°15.159 2°32.783 6.0257 -999 -999 -999
2011-01-21 10:20:15 51°15.333 2°32.932 6.0261 -999 -999 -999
2011-01-21 10:21:15 51°15.507 2°33.082 6.02 -999 -999 -999
2011-01-21 10:22:15 51°15.685 2°33.222 6.0175 -999 -999 -999
2011-01-21 10:23:15 51°15.874 2°33.142 6.0228 -999 -999 -999
2011-01-21 10:24:15 51°16.048 2°32.955 6.0219 -999 -999 -999
2011-01-21 10:25:15 51°16.209 2°32.726 6.0204 -999 -999 -999
2011-01-21 10:26:15 51°16.209 2°32.375 6.0181 -999 -999 -999
2011-01-21 10:27:15 51°16.168 2°32.01 6.018 -999 -999 -999
2011-01-21 10:28:15 51°16.131 2°31.639 6.0172 -999 -999 -999
2011-01-21 10:29:15 51°16.082 2°31.269 6.0062 -999 -999 -999
2011-01-21 10:30:15 51°16.03 2°30.896 6.0124 -999 -999 -999
2011-01-21 10:31:15 51°15.979 2°30.525 6.0303 -999 -999 -999
2011-01-21 10:32:15 51°15.929 2°30.155 6.0409 -999 -999 -999
2011-01-21 10:33:15 51°15.877 2°29.786 6.0536 -999 -999 -999
2011-01-21 10:34:15 51°15.827 2°29.418 6.0777 -999 -999 -999
2011-01-21 10:35:15 51°15.774 2°29.05 6.1236 -999 -999 -999
2011-01-21 10:36:14 51°15.721 2°28.69 6.1603 -999 -999 -999
2011-01-21 10:37:15 51°15.663 2°28.318 6.1786 -999 -999 -999
2011-01-21 10:38:14 51°15.61 2°27.955 6.1792 -999 -999 -999
2011-01-21 10:39:15 51°15.553 2°27.582 6.1772 -999 -999 -999
2011-01-21 10:40:14 51°15.498 2°27.223 6.1782 -999 -999 -999
2011-01-21 10:41:15 51°15.443 2°26.851 6.1895 -999 -999 -999
2011-01-21 10:42:15 51°15.391 2°26.49 6.2054 -999 -999 -999
2011-01-21 10:43:15 51°15.342 2°26.132 6.2367 -999 -999 -999
2011-01-21 10:44:15 51°15.321 2°25.776 6.269 -999 -999 -999
2011-01-21 10:45:14 51°15.315 2°25.429 6.3003 -999 -999 -999
2011-01-21 10:46:15 51°15.316 2°25.07 6.3418 -999 -999 -999
2011-01-21 10:47:14 51°15.436 2°24.819 6.3896 -999 -999 -999
2011-01-21 10:48:15 51°15.645 2°24.771 6.416 -999 -999 -999
2011-01-21 10:49:14 51°15.839 2°24.902 6.43 -999 -999 -999
2011-01-21 10:50:15 51°16.03 2°25.072 6.4243 -999 -999 -999
2011-01-21 10:51:15 51°16.22 2°25.239 6.3972 -999 -999 -999
2011-01-21 10:52:15 51°16.409 2°25.406 6.3553 -999 -999 -999
2011-01-21 10:53:15 51°16.6 2°25.563 6.3427 -999 -999 -999
2011-01-21 10:54:15 51°16.789 2°25.723 6.3182 -999 -999 -999
2011-01-21 10:55:15 51°16.982 2°25.87 6.2787 -999 -999 -999
2011-01-21 10:56:14 51°17.171 2°26.015 6.2426 -999 -999 -999
2011-01-21 10:57:15 51°17.363 2°26.17 6.2241 -999 -999 -999
2011-01-21 10:58:14 51°17.548 2°26.323 6.2139 -999 -999 -999
2011-01-21 10:59:15 51°17.739 2°26.482 6.2133 -999 -999 -999
2011-01-21 11:00:15 51°17.928 2°26.638 6.2013 -999 -999 -999
2011-01-21 11:01:15 51°18.116 2°26.796 6.2046 -999 -999 -999
2011-01-21 11:02:15 51°18.305 2°26.958 6.2053 -999 -999 -999
2011-01-21 11:03:15 51°18.493 2°27.117 6.2024 -999 -999 -999
2011-01-21 11:04:15 51°18.699 2°27.146 6.1892 -999 -999 -999
2011-01-21 11:05:15 51°18.906 2°27.072 6.1983 -999 -999 -999
2011-01-21 11:06:15 51°19.115 2°27.004 6.2255 -999 -999 -999
2011-01-21 11:07:14 51°19.32 2°26.941 6.2208 -999 -999 -999
2011-01-21 11:08:15 51°19.531 2°26.875 6.2219 -999 -999 -999
2011-01-21 11:09:15 51°19.739 2°26.813 6.2334 -999 -999 -999
2011-01-21 11:10:15 51°19.947 2°26.751 6.2241 -999 -999 -999
2011-01-21 11:11:15 51°20.154 2°26.687 6.2059 -999 -999 -999
2011-01-21 11:12:15 51°20.359 2°26.618 6.1993 -999 -999 -999
2011-01-21 11:13:15 51°20.565 2°26.554 6.2036 -999 -999 -999
2011-01-21 11:14:14 51°20.769 2°26.49 6.2162 -999 -999 -999
2011-01-21 11:15:15 51°20.981 2°26.423 6.2151 -999 -999 -999
2011-01-21 11:16:14 51°21.186 2°26.357 6.2445 -999 -999 -999
2011-01-21 11:17:15 51°21.398 2°26.289 6.2701 -999 -999 -999
2011-01-21 11:18:14 51°21.603 2°26.221 6.2882 -999 -999 -999
2011-01-21 11:19:15 51°21.813 2°26.15 6.2856 -999 -999 -999
2011-01-21 11:20:14 51°22.017 2°26.084 6.278 -999 -999 -999
2011-01-21 11:21:15 51°22.229 2°26.018 6.2755 -999 -999 -999
2011-01-21 11:22:15 51°22.438 2°25.955 6.2982 -999 -999 -999
2011-01-21 11:23:15 51°22.649 2°25.893 6.3255 -999 -999 -999
2011-01-21 11:24:15 51°22.86 2°25.842 6.3326 -999 -999 -999
2011-01-21 11:25:15 51°23.072 2°25.794 6.3518 -999 -999 -999
2011-01-21 11:26:15 51°23.285 2°25.848 6.367 -999 -999 -999
2011-01-21 11:27:14 51°23.476 2°26.007 6.3918 -999 -999 -999
2011-01-21 11:28:15 51°23.665 2°26.203 6.4254 -999 -999 -999
2011-01-21 11:29:15 51°23.857 2°26.384 6.4384 -999 -999 -999
2011-01-21 11:30:15 51°24.049 2°26.566 6.4431 -999 -999 -999
2011-01-21 11:31:15 51°24.244 2°26.744 6.4516 -999 -999 -999
2011-01-21 11:32:15 51°24.438 2°26.919 6.4657 -999 -999 -999
2011-01-21 11:33:15 51°24.633 2°27.093 6.4725 -999 -999 -999
2011-01-21 11:34:15 51°24.827 2°27.269 6.4724 -999 -999 -999
2011-01-21 11:35:15 51°25.022 2°27.443 6.4712 -999 -999 -999
2011-01-21 11:36:14 51°25.212 2°27.615 6.479 -999 -999 -999
2011-01-21 11:37:14 51°25.4 2°27.803 6.4941 -999 -999 -999
2011-01-21 11:38:14 51°25.588 2°27.992 6.5042 -999 -999 -999
2011-01-21 11:39:14 51°25.777 2°28.18 6.525 -999 -999 -999
2011-01-21 11:40:14 51°25.966 2°28.37 6.5402 -999 -999 -999
2011-01-21 11:41:14 51°26.154 2°28.557 6.5647 -999 -999 -999
2011-01-21 11:42:15 51°26.344 2°28.75 6.5851 -999 -999 -999
2011-01-21 11:43:15 51°26.533 2°28.936 6.5975 -999 -999 -999
2011-01-21 11:44:15 51°26.721 2°29.125 6.6128 -999 -999 -999
2011-01-21 11:45:15 51°26.909 2°29.315 6.6222 -999 -999 -999
2011-01-21 11:46:14 51°27.098 2°29.5 6.631 -999 -999 -999
2011-01-21 11:47:14 51°27.286 2°29.692 6.6499 -999 -999 -999
2011-01-21 11:48:14 51°27.476 2°29.885 6.6571 -999 -999 -999
2011-01-21 11:49:15 51°27.667 2°30.083 6.6742 -999 -999 -999
2011-01-21 11:50:14 51°27.855 2°30.271 6.6894 -999 -999 -999
2011-01-21 11:51:15 51°28.048 2°30.472 6.6997 -999 -999 -999
2011-01-21 11:52:14 51°28.236 2°30.665 6.713 -999 -999 -999
2011-01-21 11:53:15 51°28.432 2°30.862 6.7252 -999 -999 -999
2011-01-21 11:54:14 51°28.622 2°31.057 6.7368 -999 -999 -999
2011-01-21 11:55:15 51°28.817 2°31.26 6.757 -999 -999 -999
2011-01-21 11:56:15 51°29.011 2°31.457 6.7754 -999 -999 -999
2011-01-21 11:57:15 51°29.204 2°31.655 6.787 -999 -999 -999
2011-01-21 11:58:15 51°29.396 2°31.855 6.8072 -999 -999 -999
2011-01-21 11:59:15 51°29.588 2°32.054 6.8271 -999 -999 -999
2011-01-21 12:00:15 51°29.779 2°32.253 6.839 -999 -999 -999
2011-01-21 12:01:15 51°29.969 2°32.451 6.8367 -999 -999 -999
2011-01-21 12:02:15 51°30.161 2°32.65 6.8308 -999 -999 -999
2011-01-21 12:03:15 51°30.357 2°32.829 6.8227 -999 -999 -999
2011-01-21 12:04:15 51°30.563 2°32.979 6.8157 -999 -999 -999
2011-01-21 12:05:15 51°30.756 2°33.178 6.8107 -999 -999 -999
2011-01-21 12:06:15 51°30.947 2°33.381 6.8029 -999 -999 -999
2011-01-21 12:07:15 51°31.133 2°33.6 6.7981 -999 -999 -999
2011-01-21 12:08:14 51°31.316 2°33.814 6.7953 -999 -999 -999
2011-01-21 12:09:15 51°31.503 2°34.04 6.8024 -999 -999 -999
2011-01-21 12:10:14 51°31.696 2°34.214 6.8011 -999 -999 -999
2011-01-21 12:11:15 51°31.917 2°34.221 6.8068 -999 -999 -999
2011-01-21 12:12:14 51°32.133 2°34.227 6.8176 -999 -999 -999
2011-01-21 12:13:15 51°32.355 2°34.29 6.8291 -999 -999 -999
2011-01-21 12:14:14 51°32.573 2°34.356 6.8346 -999 -999 -999
2011-01-21 12:15:15 51°32.799 2°34.422 6.8504 -999 -999 -999
2011-01-21 12:16:14 51°33.019 2°34.483 6.8677 -999 -999 -999
2011-01-21 12:17:15 51°33.247 2°34.548 6.8771 -999 -999 -999
2011-01-21 12:18:15 51°33.469 2°34.612 6.8783 -999 -999 -999
2011-01-21 12:19:15 51°33.691 2°34.676 6.8674 -999 -999 -999
2011-01-21 12:20:15 51°33.91 2°34.739 6.8592 -999 -999 -999
2011-01-21 12:21:15 51°34.131 2°34.807 6.8438 -999 -999 -999
2011-01-21 12:22:15 51°34.352 2°34.871 6.8438 -999 -999 -999
2011-01-21 12:23:14 51°34.57 2°34.931 6.8344 -999 -999 -999
2011-01-21 12:24:14 51°34.791 2°34.995 6.8285 -999 -999 -999
2011-01-21 12:25:15 51°35.017 2°35.057 6.817 -999 -999 -999
2011-01-21 12:26:14 51°35.235 2°35.122 6.805 -999 -999 -999
2011-01-21 12:27:15 51°35.461 2°35.183 6.8 -999 -999 -999
2011-01-21 12:28:15 51°35.683 2°35.24 6.7845 -999 -999 -999
2011-01-21 12:29:15 51°35.905 2°35.3 6.7759 -999 -999 -999
2011-01-21 12:30:14 51°36.123 2°35.357 6.7693 -999 -999 -999
2011-01-21 12:31:15 51°36.349 2°35.415 6.7693 -999 -999 -999
2011-01-21 12:32:14 51°36.568 2°35.472 6.7593 -999 -999 -999
2011-01-21 12:33:15 51°36.794 2°35.533 6.7631 -999 -999 -999
2011-01-21 12:34:15 51°37.017 2°35.592 6.7744 -999 -999 -999
2011-01-21 12:35:15 51°37.241 2°35.65 6.7788 -999 -999 -999
2011-01-21 12:36:14 51°37.461 2°35.711 6.7813 -999 -999 -999
2011-01-21 12:37:15 51°37.689 2°35.774 6.7906 -999 -999 -999
2011-01-21 12:38:15 51°37.914 2°35.834 6.7799 -999 -999 -999
2011-01-21 12:39:15 51°38.14 2°35.894 6.7771 -999 -999 -999
2011-01-21 12:40:15 51°38.366 2°35.956 6.7867 -999 -999 -999
2011-01-21 12:41:15 51°38.593 2°36.018 6.7788 -999 -999 -999
2011-01-21 12:42:15 51°38.816 2°36.114 6.7747 -999 -999 -999
2011-01-21 12:43:15 51°39.038 2°36.218 6.7649 -999 -999 -999
2011-01-21 12:44:14 51°39.257 2°36.323 6.7562 -999 -999 -999
2011-01-21 12:45:15 51°39.483 2°36.429 6.7473 -999 -999 -999
2011-01-21 12:46:14 51°39.701 2°36.529 6.7366 -999 -999 -999
2011-01-21 12:47:15 51°39.926 2°36.635 6.7269 -999 -999 -999
2011-01-21 12:48:14 51°40.144 2°36.738 6.7051 -999 -999 -999
2011-01-21 12:49:15 51°40.37 2°36.84 6.6929 -999 -999 -999
2011-01-21 12:50:14 51°40.588 2°36.939 6.6843 -999 -999 -999
2011-01-21 12:51:15 51°40.814 2°37.042 6.669 -999 -999 -999
2011-01-21 12:52:14 51°41.034 2°37.139 6.6634 -999 -999 -999
2011-01-21 12:53:15 51°41.261 2°37.242 6.6526 -999 -999 -999
2011-01-21 12:54:15 51°41.484 2°37.343 6.6485 -999 -999 -999
2011-01-21 12:55:15 51°41.707 2°37.441 6.6516 -999 -999 -999
2011-01-21 12:56:15 51°41.923 2°37.566 6.6577 -999 -999 -999
2011-01-21 12:57:15 51°41.987 2°37.895 6.6458 -999 -999 -999
2011-01-21 12:58:15 51°41.99 2°38.272 6.639 -999 -999 -999
2011-01-21 12:59:15 51°41.994 2°38.651 6.6259 -999 -999 -999
2011-01-21 13:00:14 51°41.999 2°39.023 6.6193 -999 -999 -999
2011-01-21 13:01:14 51°42 2°39.401 6.5991 -999 -999 -999
2011-01-21 13:02:14 51°42.02 2°39.779 6.5845 -999 -999 -999
2011-01-21 13:03:14 51°42.038 2°40.157 6.5753 -999 -999 -999
2011-01-21 13:04:15 51°42.056 2°40.543 6.567 -999 -999 -999
2011-01-21 13:05:15 51°42.075 2°40.924 6.5504 -999 -999 -999
2011-01-21 13:06:14 51°42.098 2°41.298 6.5385 -999 -999 -999
2011-01-21 13:07:15 51°42.116 2°41.688 6.5271 -999 -999 -999
2011-01-21 13:08:14 51°42.132 2°42.064 6.5105 -999 -999 -999
2011-01-21 13:09:15 51°42.148 2°42.453 6.4966 -999 -999 -999
2011-01-21 13:10:14 51°42.166 2°42.831 6.48 -999 -999 -999
2011-01-21 13:11:15 51°42.184 2°43.222 6.461 -999 -999 -999
2011-01-21 13:12:15 51°42.203 2°43.606 6.4643 -999 -999 -999
2011-01-21 13:13:15 51°42.224 2°43.992 6.44 -999 -999 -999
2011-01-21 13:14:15 51°42.244 2°44.376 6.4416 -999 -999 -999
2011-01-21 13:15:15 51°42.246 2°44.757 6.4253 -999 -999 -999
2011-01-21 13:16:15 51°42.198 2°45.123 6.4293 -999 -999 -999
2011-01-21 13:17:15 51°42.034 2°45.337 6.4432 -999 -999 -999
2011-01-21 13:18:15 51°41.827 2°45.38 6.444 -999 -999 -999
2011-01-21 13:19:14 51°41.625 2°45.368 6.4646 -999 -999 -999
2011-01-21 13:20:14 51°41.428 2°45.29 6.4666 -999 -999 -999
2011-01-21 13:21:14 51°41.248 2°45.148 6.4762 -999 -999 -999
2011-01-21 13:22:14 51°41.067 2°45.009 6.4801 -999 -999 -999
2011-01-21 13:23:15 51°40.887 2°44.859 6.4893 -999 -999 -999
2011-01-21 13:24:14 51°40.711 2°44.717 6.5004 -999 -999 -999
2011-01-21 13:25:15 51°40.535 2°44.554 6.4955 -999 -999 -999
2011-01-21 13:26:15 51°40.365 2°44.389 6.5037 -999 -999 -999
2011-01-21 13:27:15 51°40.192 2°44.225 6.4988 -999 -999 -999
2011-01-21 13:28:14 51°40.023 2°44.065 6.5099 -999 -999 -999
2011-01-21 13:29:15 51°39.85 2°43.897 6.4986 -999 -999 -999
2011-01-21 13:30:14 51°39.682 2°43.74 6.5035 -999 -999 -999
2011-01-21 13:31:15 51°39.51 2°43.575 6.4899 -999 -999 -999
2011-01-21 13:32:15 51°39.34 2°43.41 6.4878 -999 -999 -999
2011-01-21 13:33:15 51°39.168 2°43.249 6.4897 -999 -999 -999
2011-01-21 13:34:15 51°38.996 2°43.09 6.4898 -999 -999 -999
2011-01-21 13:35:15 51°38.827 2°42.928 6.4952 -999 -999 -999
2011-01-21 13:36:15 51°38.656 2°42.769 6.5068 -999 -999 -999
2011-01-21 13:37:15 51°38.485 2°42.604 6.5064 -999 -999 -999
2011-01-21 13:38:15 51°38.312 2°42.444 6.5288 -999 -999 -999
2011-01-21 13:39:14 51°38.14 2°42.294 6.5483 -999 -999 -999
2011-01-21 13:40:14 51°37.948 2°42.2 6.5701 -999 -999 -999
2011-01-21 13:41:15 51°37.754 2°42.101 6.6016 -999 -999 -999
2011-01-21 13:42:14 51°37.566 2°42.007 6.6217 -999 -999 -999
2011-01-21 13:43:15 51°37.371 2°41.911 6.6545 -999 -999 -999
2011-01-21 13:44:14 51°37.179 2°41.829 6.6846 -999 -999 -999
2011-01-21 13:45:15 51°36.982 2°41.747 6.7168 -999 -999 -999
2011-01-21 13:46:14 51°36.791 2°41.672 6.7504 -999 -999 -999
2011-01-21 13:47:15 51°36.593 2°41.593 6.7819 -999 -999 -999
2011-01-21 13:48:15 51°36.398 2°41.514 6.7973 -999 -999 -999
2011-01-21 13:49:14 51°36.207 2°41.44 6.8152 -999 -999 -999
2011-01-21 13:50:14 51°36.011 2°41.367 6.8232 -999 -999 -999
2011-01-21 13:51:15 51°35.813 2°41.292 6.8284 -999 -999 -999
2011-01-21 13:52:15 51°35.618 2°41.223 6.8419 -999 -999 -999
2011-01-21 13:53:15 51°35.423 2°41.156 6.8486 -999 -999 -999
2011-01-21 13:54:15 51°35.263 2°41.096 6.8486 -999 -999 -999
2011-01-21 13:55:15 51°35.159 2°41.077 6.8515 -999 -999 -999
2011-01-21 13:56:15 51°35.01 2°40.996 6.8524 -999 -999 -999
2011-01-21 13:57:14 51°34.835 2°40.874 6.8559 -999 -999 -999
2011-01-21 13:58:14 51°34.655 2°40.752 6.8492 -999 -999 -999
2011-01-21 13:59:14 51°34.55 2°40.676 6.8451 -999 -999 -999
2011-01-21 14:00:14 51°34.483 2°40.647 6.851 -999 -999 -999
2011-01-21 14:01:15 51°34.426 2°40.632 6.8452 -999 -999 -999
2011-01-21 14:02:14 51°34.377 2°40.615 6.8396 -999 -999 -999
2011-01-21 14:03:15 51°34.326 2°40.602 6.84 -999 -999 -999
2011-01-21 14:04:14 51°34.279 2°40.588 6.8372 -999 -999 -999
2011-01-21 14:05:15 51°34.232 2°40.571 6.8325 -999 -999 -999
2011-01-21 14:06:14 51°34.186 2°40.552 6.8257 -999 -999 -999
2011-01-21 14:07:15 51°34.129 2°40.53 6.822 -999 -999 -999
2011-01-21 14:08:14 51°34.008 2°40.458 6.8215 -999 -999 -999
2011-01-21 14:09:14 51°33.837 2°40.338 6.8123 -999 -999 -999
2011-01-21 14:10:15 51°33.652 2°40.209 6.8038 -999 -999 -999
2011-01-21 14:11:15 51°33.47 2°40.081 6.7897 -999 -999 -999
2011-01-21 14:12:15 51°33.28 2°39.99 6.7863 -999 -999 -999
2011-01-21 14:13:15 51°33.081 2°39.953 6.7603 -999 -999 -999
2011-01-21 14:14:15 51°32.883 2°39.912 6.7354 -999 -999 -999
2011-01-21 14:15:14 51°32.69 2°39.867 6.7235 -999 -999 -999
2011-01-21 14:16:15 51°32.489 2°39.822 6.7172 -999 -999 -999
2011-01-21 14:17:15 51°32.292 2°39.777 6.7213 -999 -999 -999
2011-01-21 14:18:15 51°32.094 2°39.734 6.7363 -999 -999 -999
2011-01-21 14:19:15 51°31.898 2°39.69 6.7506 -999 -999 -999
2011-01-21 14:20:14 51°31.702 2°39.692 6.764 -999 -999 -999
2011-01-21 14:21:14 51°31.5 2°39.718 6.7766 -999 -999 -999
2011-01-21 14:22:14 51°31.299 2°39.74 6.7918 -999 -999 -999
2011-01-21 14:23:14 51°31.1 2°39.762 6.7955 -999 -999 -999
2011-01-21 14:24:14 51°30.9 2°39.794 6.7857 -999 -999 -999
2011-01-21 14:25:14 51°30.705 2°39.89 6.7722 -999 -999 -999
2011-01-21 14:26:15 51°30.518 2°40.045 6.7552 -999 -999 -999
2011-01-21 14:27:15 51°30.331 2°40.199 6.726 -999 -999 -999
2011-01-21 14:28:14 51°30.148 2°40.343 6.6992 -999 -999 -999
2011-01-21 14:29:14 51°29.962 2°40.49 6.6778 -999 -999 -999
2011-01-21 14:30:15 51°29.772 2°40.641 6.6432 -999 -999 -999
2011-01-21 14:31:14 51°29.59 2°40.79 6.5989 -999 -999 -999
2011-01-21 14:32:15 51°29.406 2°40.966 6.5683 -999 -999 -999
2011-01-21 14:33:15 51°29.225 2°41.148 6.5419 -999 -999 -999
2011-01-21 14:34:14 51°29.047 2°41.325 6.5352 -999 -999 -999
2011-01-21 14:35:14 51°28.866 2°41.503 6.5426 -999 -999 -999
2011-01-21 14:36:15 51°28.681 2°41.678 6.5488 -999 -999 -999
2011-01-21 14:37:14 51°28.502 2°41.852 6.5511 -999 -999 -999
2011-01-21 14:38:15 51°28.318 2°42.033 6.5225 -999 -999 -999
2011-01-21 14:39:15 51°28.134 2°42.21 6.4888 -999 -999 -999
2011-01-21 14:40:15 51°27.952 2°42.386 6.4483 -999 -999 -999
2011-01-21 14:41:14 51°27.771 2°42.559 6.3968 -999 -999 -999
2011-01-21 14:42:14 51°27.586 2°42.734 6.3329 -999 -999 -999
2011-01-21 14:43:14 51°27.403 2°42.915 6.3222 -999 -999 -999
2011-01-21 14:44:14 51°27.22 2°43.092 6.3287 -999 -999 -999
2011-01-21 14:45:14 51°27.036 2°43.266 6.2914 -999 -999 -999
2011-01-21 14:46:14 51°26.85 2°43.435 6.2138 -999 -999 -999
2011-01-21 14:47:14 51°26.665 2°43.608 6.1303 -999 -999 -999
2011-01-21 14:48:15 51°26.475 2°43.781 6.0839 -999 -999 -999
2011-01-21 14:49:15 51°26.29 2°43.956 6.0041 -999 -999 -999
2011-01-21 14:50:15 51°26.109 2°44.141 5.9431 -999 -999 -999
2011-01-21 14:51:14 51°25.93 2°44.323 5.9558 -999 -999 -999
2011-01-21 14:52:15 51°25.745 2°44.511 5.9812 -999 -999 -999
2011-01-21 14:53:14 51°25.566 2°44.69 5.9805 -999 -999 -999
2011-01-21 14:54:15 51°25.38 2°44.871 5.9569 -999 -999 -999
2011-01-21 14:55:14 51°25.2 2°45.049 5.9433 -999 -999 -999
2011-01-21 14:56:15 51°25.015 2°45.231 5.9319 -999 -999 -999
2011-01-21 14:57:14 51°24.837 2°45.412 5.9007 -999 -999 -999
2011-01-21 14:58:15 51°24.651 2°45.593 5.8572 -999 -999 -999
2011-01-21 14:59:14 51°24.471 2°45.772 5.8503 -999 -999 -999
2011-01-21 15:00:15 51°24.284 2°45.954 5.8326 -999 -999 -999
2011-01-21 15:01:14 51°24.105 2°46.13 5.8214 -999 -999 -999
2011-01-21 15:02:14 51°23.922 2°46.312 5.7978 -999 -999 -999
2011-01-21 15:03:14 51°23.738 2°46.489 5.7853 -999 -999 -999
2011-01-21 15:04:14 51°23.558 2°46.673 5.7828 -999 -999 -999
2011-01-21 15:05:15 51°23.372 2°46.855 5.7968 -999 -999 -999
2011-01-21 15:06:15 51°23.191 2°47.038 5.8208 -999 -999 -999
2011-01-21 15:07:14 51°23.013 2°47.22 5.8394 -999 -999 -999
2011-01-21 15:08:14 51°22.834 2°47.404 5.8569 -999 -999 -999
2011-01-21 15:09:14 51°22.656 2°47.596 5.8655 -999 -999 -999
2011-01-21 15:10:14 51°22.481 2°47.782 5.8907 -999 -999 -999
2011-01-21 15:11:14 51°22.305 2°47.977 5.8943 -999 -999 -999
2011-01-21 15:12:14 51°22.125 2°48.168 5.9059 -999 -999 -999
2011-01-21 15:13:14 51°21.941 2°48.357 5.8955 -999 -999 -999
2011-01-21 15:14:14 51°21.759 2°48.553 5.8917 -999 -999 -999
2011-01-21 15:15:15 51°21.572 2°48.742 5.8716 -999 -999 -999
2011-01-21 15:16:14 51°21.39 2°48.926 5.8563 -999 -999 -999
2011-01-21 15:17:15 51°21.203 2°49.12 5.8636 -999 -999 -999
2011-01-21 15:18:15 51°21.018 2°49.31 5.8598 -999 -999 -999
2011-01-21 15:19:15 51°20.842 2°49.515 5.8675 -999 -999 -999
2011-01-21 15:20:14 51°20.669 2°49.717 5.8787 -999 -999 -999
2011-01-21 15:21:15 51°20.496 2°49.925 5.8593 -999 -999 -999
2011-01-21 15:22:14 51°20.326 2°50.12 5.7908 -999 -999 -999
2011-01-21 15:23:15 51°20.136 2°50.278 5.7614 -999 -999 -999
2011-01-21 15:24:14 51°19.95 2°50.436 5.741 -999 -999 -999
2011-01-21 15:25:15 51°19.757 2°50.599 5.7654 -999 -999 -999
2011-01-21 15:26:14 51°19.568 2°50.75 5.7828 -999 -999 -999
2011-01-21 15:27:14 51°19.371 2°50.878 5.7946 -999 -999 -999
2011-01-21 15:28:14 51°19.175 2°51.008 5.8095 -999 -999 -999
2011-01-21 15:29:14 51°18.981 2°51.142 5.8441 -999 -999 -999
2011-01-21 15:30:15 51°18.781 2°51.262 5.849 -999 -999 -999
2011-01-21 15:31:14 51°18.587 2°51.393 5.8628 -999 -999 -999
2011-01-21 15:32:14 51°18.394 2°51.531 5.8893 -999 -999 -999
2011-01-21 15:33:14 51°18.202 2°51.668 5.9054 -999 -999 -999
2011-01-21 15:34:14 51°18.01 2°51.808 5.9083 -999 -999 -999
2011-01-21 15:35:15 51°17.814 2°51.944 5.9161 -999 -999 -999
2011-01-21 15:36:14 51°17.624 2°52.078 5.9167 -999 -999 -999
2011-01-21 15:37:15 51°17.424 2°52.213 5.9144 -999 -999 -999
2011-01-21 15:38:14 51°17.234 2°52.349 5.9278 -999 -999 -999
2011-01-21 15:39:15 51°17.038 2°52.489 5.9488 -999 -999 -999
2011-01-21 15:40:14 51°16.85 2°52.638 6.0195 -999 -999 -999
2011-01-21 15:41:15 51°16.658 2°52.8 6.3712 -999 -999 -999
2011-01-21 15:42:14 51°16.471 2°52.953 6.5362 -999 -999 -999
2011-01-21 15:43:15 51°16.272 2°53.086 6.6719 -999 -999 -999
2011-01-21 15:44:14 51°16.082 2°53.229 6.7773 -999 -999 -999
2011-01-21 15:45:15 51°15.888 2°53.4 6.9418 -999 -999 -999
2011-01-21 15:46:14 51°15.709 2°53.585 7.07 -999 -999 -999
2011-01-21 15:47:14 51°15.532 2°53.788 7.1577 -999 -999 -999
2011-01-21 15:48:14 51°15.36 2°54 7.3471 -999 -999 -999
2011-01-21 15:49:15 51°15.187 2°54.227 7.4893 -999 -999 -999
2011-01-21 15:50:14 51°15.022 2°54.444 7.6376 -999 -999 -999
2011-01-21 15:51:14 51°14.856 2°54.645 7.8006 -999 -999 -999
2011-01-21 15:52:14 51°14.702 2°54.847 7.9373 -999 -999 -999
2011-01-21 15:53:15 51°14.534 2°55.02 8.0475 -999 -999 -999
2011-01-21 15:54:15 51°14.368 2°55.185 8.1569 -999 -999 -999
2011-01-21 15:55:18 51°14.22 2°55.336 8.2345 -999 -999 -999
2011-01-21 15:56:18 51°14.091 2°55.441 8.2792 -999 -999 -999
2011-01-21 15:57:17 51°13.992 2°55.518 8.4422 -999 -999 -999
2011-01-21 15:58:18 51°13.898 2°55.592 8.5531 -999 -999 -999
2011-01-21 15:59:18 51°13.8 2°55.675 8.6769 -999 -999 -999
2011-01-21 16:00:16 51°13.733 2°55.762 8.8206 -999 -999 -999
2011-01-21 16:01:18 51°13.687 2°55.853 8.9378 -999 -999 -999
2011-01-21 16:02:16 51°13.667 2°55.93 9.0637 -999 -999 -999